sat.trackr.live / text

‹ back to catalog

STARLINK-3541

NORAD 51854 · 2022-022C

PAYLOAD ACTIVE UNKNOWN

§ Identity

Operator
Country
US
Launch date
2022-03-03
Launch site
AFETR
Launch vehicle
Mass (kg)
RCS (m²)

Purposes: comms

External: N2YO · Heavens-Above · Gunter

§ Orbital elements

Epoch: 2026-09-20T01:35:33.433152Z

Period
94.58 min
Inclination
53.2176°
Eccentricity
0.0004497
Mean motion
15.22524090 rev/d
Perigee alt
495.1 km
Apogee alt
501.3 km
Semi-major
6,876.4 km
B*
9.9733e-4
RAAN
211.8474°
Arg perigee
85.7155°
Mean anomaly
274.4357°
Rev number
25,257

§ Raw data

STARLINK-35411 51854U 22022C   26263.06635918  .00023167  00000+0  99733-3 0  99902 51854  53.2176 211.8474 0004497  85.7155 274.4357 15.22524090252574

JSON: /api/v1/satellites/51854 · /tle

For live sub-satellite position, see the globe view (requires WebGL).

§ Visibility from observer

Set your observer location to see the next 7 days of passes ≥ 10°. The values pass through the URL so the page stays shareable.

No JS? Fill the form by hand. The geolocation button needs JavaScript.